Location: Newark
(22.3145°N, 88.6625°E)
Time: 08:13:18
(UTC+00:00)

Envisat - Pass Details

Date: 28 September 2019
Orbit: 764 x 766 km, 98.1° (Epoch: 23 October)

Event Time Altitude Azimuth Distance (km) Brightness Sun altitude
Rises 12:38:24 0° 174° (S) 3,218 6.1 -10.6°
Reaches altitude 10° 12:40:43 10° 177° (S) 2,294 5.4 -11.1°
Maximum altitude 12:45:44 65° 259° (WSW) 839 3.5 -12.2°
Drops below altitude 10° 12:50:46 10° 341° (NNW) 2,301 5.8 -13.4°
Sets 12:53:05 0° 344° (NNW) 3,229 6.5 -13.9°
